Terug naar catalogus

SDA_1679

ActiefWetenschapPO
NORAD 65989·PAYLOAD·🇺🇸 United States

Gelanceerd Oct 15, 2025 vanaf Vandenberg Space Force Base

Loading…

Volgende Passages (komende 24 uur)

TLE

VersSource: Space-Track

Epoch: Sep 14, 2026, 14:12 UTC

1 65989U 25230R   26257.59219012  .00000095  00000-0  74163-4 0  9999
2 65989  81.3022 128.7558 0003109 342.1391  17.9657 13.84860972 46190

Volg SDA_1679 in realtime met AllMySat

Download on the App Store